Time,TemperatureF,DewpointF,PressureIn,WindDirection,WindDirectionDegrees,WindSpeedMPH,WindSpeedGustMPH,Humidity,HourlyPrecipIn,Conditions,Clouds,dailyrainin,SoftwareType,DateUTC
2013-09-25 00:03:00,60.9,58.6,29.83,NNE,16,0.0,3.0,92,0.00,CLR,SKC,0.00,WeatherDisplay:10.37,2013-09-25 05:03:00,
2013-09-25 00:08:00,60.9,58.6,29.83,NNE,22,0.0,5.0,92,0.00,CLR,SKC,0.00,WeatherDisplay:10.37,2013-09-25 05:08:00,
2013-09-25 00:18:00,60.9,58.6,29.83,NNE,13,0.0,3.0,92,0.00,CLR,SKC,0.00,WeatherDisplay:10.37,2013-09-25 05:18:00,
2013-09-25 00:23:00,60.9,58.5,29.83,North,359,0.0,2.0,92,0.00,CLR,SKC,0.00,WeatherDisplay:10.37,2013-09-25 05:23:00,
2013-09-25 00:28:00,60.7,58.4,29.83,NNW,342,0.0,0.0,92,0.00,CLR,SKC,0.00,WeatherDisplay:10.37,2013-09-25 05:28:00,
2013-09-25 00:33:00,60.6,58.2,29.83,NNW,343,0.0,0.0,92,0.00,CLR,SKC,0.00,WeatherDisplay:10.37,2013-09-25 05:33:00,
2013-09-25 00:38:00,60.3,58.3,29.83,NNW,343,0.0,0.0,93,0.00,CLR,SKC,0.00,WeatherDisplay:10.37,2013-09-25 05:38:00,
2013-09-25 00:43:00,60.2,58.2,29.83,NNW,331,0.0,0.0,93,0.00,CLR,SKC,0.00,WeatherDisplay:10.37,2013-09-25 05:43:00,
2013-09-25 00:48:00,60.1,58.1,29.83,NW,319,0.0,0.0,93,0.00,CLR,SKC,0.00,WeatherDisplay:10.37,2013-09-25 05:48:00,
2013-09-25 00:53:00,60.0,58.3,29.83,NW,321,0.0,0.0,94,0.00,CLR,SKC,0.00,WeatherDisplay:10.37,2013-09-25 05:53:00,
2013-09-25 00:58:00,59.9,58.2,29.83,NW,323,0.0,0.0,94,0.00,CLR,SKC,0.00,WeatherDisplay:10.37,2013-09-25 05:58:00,
2013-09-25 01:03:00,59.9,58.2,29.83,NW,323,0.0,0.0,94,0.00,CLR,SKC,0.00,WeatherDisplay:10.37,2013-09-25 06:03:00,
2013-09-25 01:08:00,59.8,58.1,29.84,NW,323,0.0,0.0,94,0.00,CLR,SKC,0.00,WeatherDisplay:10.37,2013-09-25 06:08:00,
2013-09-25 01:13:00,59.7,58.0,29.83,NW,323,0.0,0.0,94,0.00,CLR,SKC,0.00,WeatherDisplay:10.37,2013-09-25 06:13:00,
2013-09-25 01:18:00,59.6,57.9,29.83,NW,323,0.0,0.0,94,0.00,CLR,SKC,0.00,WeatherDisplay:10.37,2013-09-25 06:18:00,
2013-09-25 01:28:00,59.3,57.9,29.84,NW,323,0.0,0.0,95,0.00,CLR,SKC,0.00,WeatherDisplay:10.37,2013-09-25 06:28:00,
2013-09-25 01:38:00,59.1,57.7,29.84,NW,323,0.0,0.0,95,0.00,CLR,SKC,0.00,WeatherDisplay:10.37,2013-09-25 06:38:00,
2013-09-25 01:48:00,58.9,57.5,29.83,NW,323,0.0,0.0,95,0.00,CLR,SKC,0.00,WeatherDisplay:10.37,2013-09-25 06:48:00,
2013-09-25 01:53:00,58.8,57.7,29.83,NW,323,0.0,0.0,96,0.00,CLR,SKC,0.00,WeatherDisplay:10.37,2013-09-25 06:53:00,
2013-09-25 01:58:00,58.9,57.8,29.83,NW,323,0.0,0.0,96,0.00,CLR,SKC,0.00,WeatherDisplay:10.37,2013-09-25 06:58:00,
2013-09-25 02:03:00,58.8,57.7,29.83,NW,323,0.0,0.0,96,0.00,CLR,SKC,0.00,WeatherDisplay:10.37,2013-09-25 07:03:00,
2013-09-25 02:08:00,58.8,57.7,29.83,NNW,329,0.0,2.0,96,0.00,CLR,SKC,0.00,WeatherDisplay:10.37,2013-09-25 07:08:00,
2013-09-25 02:13:00,58.8,57.7,29.84,NNW,345,0.0,2.0,96,0.00,CLR,SKC,0.00,WeatherDisplay:10.37,2013-09-25 07:13:00,
2013-09-25 02:18:00,58.7,57.6,29.84,North,351,0.0,0.0,96,0.00,CLR,SKC,0.00,WeatherDisplay:10.37,2013-09-25 07:18:00,
2013-09-25 02:23:00,58.7,57.6,29.83,North,350,0.0,0.0,96,0.00,CLR,SKC,0.00,WeatherDisplay:10.37,2013-09-25 07:23:00,
2013-09-25 02:28:00,58.6,57.5,29.83,North,350,0.0,0.0,96,0.00,CLR,SKC,0.00,WeatherDisplay:10.37,2013-09-25 07:28:00,
2013-09-25 02:33:00,58.6,57.5,29.83,North,349,0.0,2.0,96,0.00,CLR,SKC,0.00,WeatherDisplay:10.37,2013-09-25 07:33:00,
2013-09-25 02:38:00,58.5,57.3,29.83,North,349,0.0,0.0,96,0.00,CLR,SKC,0.00,WeatherDisplay:10.37,2013-09-25 07:38:00,
2013-09-25 02:43:00,58.3,57.2,29.83,North,350,0.0,0.0,96,0.00,CLR,SKC,0.00,WeatherDisplay:10.37,2013-09-25 07:43:00,
2013-09-25 02:48:00,58.1,57.0,29.83,North,349,0.0,0.0,96,0.00,CLR,SKC,0.00,WeatherDisplay:10.37,2013-09-25 07:48:00,
2013-09-25 02:53:00,58.0,56.9,29.82,North,349,0.0,0.0,96,0.00,CLR,SKC,0.00,WeatherDisplay:10.37,2013-09-25 07:53:00,
2013-09-25 02:58:00,57.9,56.8,29.83,North,349,0.0,0.0,96,0.00,CLR,SKC,0.00,WeatherDisplay:10.37,2013-09-25 07:58:00,
2013-09-25 03:03:00,58.0,57.2,29.83,North,349,0.0,0.0,97,0.00,CLR,SKC,0.00,WeatherDisplay:10.37,2013-09-25 08:03:00,
2013-09-25 03:08:00,58.0,57.2,29.83,North,349,0.0,0.0,97,0.00,CLR,SKC,0.00,WeatherDisplay:10.37,2013-09-25 08:08:00,
2013-09-25 03:13:00,58.1,57.3,29.83,North,350,0.0,3.0,97,0.00,CLR,SKC,0.00,WeatherDisplay:10.37,2013-09-25 08:13:00,
2013-09-25 03:18:00,58.3,57.5,29.83,North,5,0.0,3.0,97,0.00,CLR,SKC,0.00,WeatherDisplay:10.37,2013-09-25 08:18:00,
2013-09-25 03:23:00,58.4,57.6,29.83,NNE,15,0.0,3.0,97,0.00,CLR,SKC,0.00,WeatherDisplay:10.37,2013-09-25 08:23:00,
2013-09-25 03:28:00,58.4,57.5,29.83,NNE,29,0.0,0.0,97,0.00,CLR,SKC,0.00,WeatherDisplay:10.37,2013-09-25 08:28:00,
2013-09-25 03:33:00,58.2,57.4,29.83,NNE,29,0.0,0.0,97,0.00,CLR,SKC,0.00,WeatherDisplay:10.37,2013-09-25 08:33:00,
2013-09-25 03:38:00,58.2,57.4,29.83,NNE,29,0.0,2.0,97,0.00,CLR,SKC,0.00,WeatherDisplay:10.37,2013-09-25 08:38:00,
2013-09-25 03:43:00,58.1,57.3,29.83,NNE,29,0.0,0.0,97,0.00,CLR,SKC,0.00,WeatherDisplay:10.37,2013-09-25 08:43:00,
2013-09-25 03:48:00,58.1,57.3,29.83,NNE,29,0.0,0.0,97,0.00,CLR,SKC,0.00,WeatherDisplay:10.37,2013-09-25 08:48:00,
2013-09-25 03:53:00,58.0,57.2,29.83,NNE,29,0.0,0.0,97,0.00,CLR,SKC,0.00,WeatherDisplay:10.37,2013-09-25 08:53:00,
2013-09-25 03:58:00,58.0,57.1,29.83,NNE,29,0.0,0.0,97,0.00,CLR,SKC,0.00,WeatherDisplay:10.37,2013-09-25 08:58:00,
2013-09-25 04:03:00,57.9,57.1,29.83,NNE,29,0.0,0.0,97,0.00,CLR,SKC,0.00,WeatherDisplay:10.37,2013-09-25 09:03:00,
2013-09-25 04:08:00,57.9,57.1,29.83,NNE,29,0.0,0.0,97,0.00,CLR,SKC,0.00,WeatherDisplay:10.37,2013-09-25 09:08:00,
2013-09-25 04:18:00,57.9,57.1,29.83,NNE,13,0.0,2.0,97,0.00,CLR,SKC,0.00,WeatherDisplay:10.37,2013-09-25 09:18:00,
2013-09-25 04:23:00,57.9,57.1,29.82,NNW,343,0.0,0.0,97,0.00,CLR,SKC,0.00,WeatherDisplay:10.37,2013-09-25 09:23:00,
2013-09-25 04:28:00,57.9,57.9,29.83,NNW,335,0.0,0.0,100,0.00,CLR,SKC,0.00,WeatherDisplay:10.37,2013-09-25 09:28:00,
2013-09-25 04:33:00,57.9,57.4,29.83,NNW,340,0.0,2.0,98,0.00,CLR,SKC,0.00,WeatherDisplay:10.37,2013-09-25 09:33:00,
2013-09-25 04:38:00,57.8,57.8,29.83,NNW,340,0.0,0.0,100,0.00,CLR,SKC,0.00,WeatherDisplay:10.37,2013-09-25 09:38:00,
2013-09-25 04:43:00,57.8,57.8,29.83,NNW,340,0.0,0.0,100,0.00,CLR,SKC,0.00,WeatherDisplay:10.37,2013-09-25 09:43:00,
2013-09-25 04:48:00,57.8,57.8,29.83,NNW,340,0.0,0.0,100,0.00,CLR,SKC,0.00,WeatherDisplay:10.37,2013-09-25 09:48:00,
2013-09-25 04:53:00,57.7,57.7,29.83,NNW,340,0.0,0.0,100,0.00,CLR,SKC,0.00,WeatherDisplay:10.37,2013-09-25 09:53:00,
2013-09-25 04:58:00,57.7,57.7,29.83,NNW,340,0.0,0.0,100,0.00,CLR,SKC,0.00,WeatherDisplay:10.37,2013-09-25 09:58:00,
2013-09-25 05:03:00,57.8,57.8,29.83,NNW,340,0.0,0.0,100,0.00,CLR,SKC,0.00,WeatherDisplay:10.37,2013-09-25 10:03:00,
2013-09-25 05:08:00,57.7,57.7,29.83,NNW,340,0.0,0.0,100,0.00,CLR,SKC,0.00,WeatherDisplay:10.37,2013-09-25 10:08:00,
2013-09-25 05:13:00,57.6,57.6,29.83,NNW,340,0.0,0.0,100,0.00,CLR,SKC,0.00,WeatherDisplay:10.37,2013-09-25 10:13:00,
2013-09-25 05:18:00,57.6,57.6,29.83,NNW,340,0.0,0.0,100,0.00,CLR,SKC,0.00,WeatherDisplay:10.37,2013-09-25 10:18:00,
2013-09-25 05:23:00,57.5,57.5,29.83,NNW,340,0.0,0.0,100,0.00,CLR,SKC,0.00,WeatherDisplay:10.37,2013-09-25 10:23:00,
2013-09-25 05:28:00,57.5,57.5,29.83,NNW,340,0.0,2.0,100,0.00,CLR,SKC,0.00,WeatherDisplay:10.37,2013-09-25 10:28:00,
2013-09-25 05:33:00,57.5,57.5,29.83,NNW,340,0.0,2.0,100,0.00,CLR,SKC,0.00,WeatherDisplay:10.37,2013-09-25 10:33:00,
2013-09-25 05:38:00,57.5,57.5,29.84,NNW,340,0.0,0.0,100,0.00,CLR,SKC,0.00,WeatherDisplay:10.37,2013-09-25 10:38:00,
2013-09-25 05:43:00,57.4,57.4,29.84,NNW,340,0.0,0.0,100,0.00,CLR,SKC,0.00,WeatherDisplay:10.37,2013-09-25 10:43:00,
2013-09-25 05:48:00,57.3,57.3,29.84,NNW,340,0.0,0.0,100,0.00,CLR,SKC,0.00,WeatherDisplay:10.37,2013-09-25 10:48:00,
2013-09-25 05:53:00,57.3,57.3,29.84,NNW,340,0.0,0.0,100,0.00,CLR,SKC,0.00,WeatherDisplay:10.37,2013-09-25 10:53:00,
2013-09-25 05:58:00,57.4,57.4,29.84,NNW,340,0.0,0.0,100,0.00,CLR,SKC,0.00,WeatherDisplay:10.37,2013-09-25 10:58:00,
2013-09-25 06:03:00,57.3,57.3,29.84,NNW,340,0.0,0.0,100,0.00,CLR,SKC,0.00,WeatherDisplay:10.37,2013-09-25 11:03:00,
2013-09-25 06:08:00,57.3,57.3,29.84,NNW,340,0.0,0.0,100,0.00,CLR,SKC,0.00,WeatherDisplay:10.37,2013-09-25 11:08:00,
2013-09-25 06:13:00,57.4,57.4,29.85,North,355,0.0,3.0,100,0.00,CLR,SKC,0.00,WeatherDisplay:10.37,2013-09-25 11:13:00,
2013-09-25 06:18:00,57.4,57.4,29.85,NNE,29,0.0,0.0,100,0.00,CLR,SKC,0.00,WeatherDisplay:10.37,2013-09-25 11:18:00,
2013-09-25 06:23:00,57.2,57.2,29.85,NNE,29,0.0,2.0,100,0.00,CLR,SKC,0.00,WeatherDisplay:10.37,2013-09-25 11:23:00,
2013-09-25 06:28:00,57.4,57.4,29.85,NNE,23,1.0,3.0,100,0.00,CLR,SKC,0.00,WeatherDisplay:10.37,2013-09-25 11:28:00,
2013-09-25 06:33:00,57.3,57.3,29.85,NNE,14,0.0,2.0,100,0.00,CLR,SKC,0.00,WeatherDisplay:10.37,2013-09-25 11:33:00,
2013-09-25 06:38:00,57.3,57.3,29.85,NNE,14,0.0,1.0,100,0.00,CLR,SKC,0.00,WeatherDisplay:10.37,2013-09-25 11:38:00,
2013-09-25 06:43:00,57.2,57.2,29.85,NNE,13,0.0,0.0,100,0.00,CLR,SKC,0.00,WeatherDisplay:10.37,2013-09-25 11:43:00,
2013-09-25 06:48:00,57.0,57.0,29.86,NNE,13,0.0,0.0,100,0.00,CLR,SKC,0.00,WeatherDisplay:10.37,2013-09-25 11:48:00,
2013-09-25 06:53:00,57.0,57.0,29.85,NNE,13,0.0,0.0,100,0.00,CLR,SKC,0.00,WeatherDisplay:10.37,2013-09-25 11:53:00,
2013-09-25 06:58:00,56.9,56.9,29.86,NNE,13,0.0,0.0,100,0.00,CLR,SKC,0.00,WeatherDisplay:10.37,2013-09-25 11:58:00,
2013-09-25 07:03:00,56.9,56.9,29.86,NNE,13,0.0,0.0,100,0.00,CLR,SKC,0.00,WeatherDisplay:10.37,2013-09-25 12:03:00,
2013-09-25 07:08:00,56.9,56.9,29.86,NNE,13,0.0,0.0,100,0.00,CLR,SKC,0.00,WeatherDisplay:10.37,2013-09-25 12:08:00,
2013-09-25 07:13:00,56.9,56.9,29.86,NNE,13,0.0,0.0,100,0.00,CLR,SKC,0.00,WeatherDisplay:10.37,2013-09-25 12:13:00,
2013-09-25 07:18:00,56.9,56.9,29.86,NNE,13,0.0,0.0,100,0.00,CLR,SKC,0.00,WeatherDisplay:10.37,2013-09-25 12:18:00,
2013-09-25 07:23:00,56.9,56.9,29.87,NNE,13,0.0,0.0,100,0.00,CLR,SKC,0.00,WeatherDisplay:10.37,2013-09-25 12:23:00,
2013-09-25 07:28:00,56.8,56.8,29.86,NNE,13,0.0,0.0,100,0.00,CLR,SKC,0.00,WeatherDisplay:10.37,2013-09-25 12:28:00,
2013-09-25 07:33:00,56.9,56.9,29.87,NNE,13,0.0,0.0,100,0.00,CLR,SKC,0.00,WeatherDisplay:10.37,2013-09-25 12:33:00,
2013-09-25 07:38:00,57.0,57.0,29.87,NNE,13,0.0,0.0,100,0.00,CLR,SKC,0.00,WeatherDisplay:10.37,2013-09-25 12:38:00,
2013-09-25 07:43:00,57.1,57.1,29.87,NNE,13,0.0,0.0,100,0.00,CLR,SKC,0.00,WeatherDisplay:10.37,2013-09-25 12:43:00,
2013-09-25 07:48:00,57.2,57.2,29.87,NNE,13,0.0,0.0,100,0.00,CLR,SKC,0.00,WeatherDisplay:10.37,2013-09-25 12:48:00,
2013-09-25 07:53:00,57.4,57.4,29.87,NNE,13,0.0,0.0,100,0.00,CLR,SKC,0.00,WeatherDisplay:10.37,2013-09-25 12:53:00,
2013-09-25 07:58:00,57.5,57.5,29.87,NNE,13,0.0,0.0,100,0.00,CLR,SKC,0.00,WeatherDisplay:10.37,2013-09-25 12:58:00,
2013-09-25 08:03:00,57.6,57.6,29.87,NNE,13,0.0,0.0,100,0.00,CLR,SKC,0.00,WeatherDisplay:10.37,2013-09-25 13:03:00,
2013-09-25 08:08:00,57.7,57.7,29.87,NNE,13,0.0,0.0,100,0.00,CLR,SKC,0.00,WeatherDisplay:10.37,2013-09-25 13:08:00,
2013-09-25 08:13:00,57.9,57.9,29.87,NNE,13,0.0,0.0,100,0.00,CLR,SKC,0.00,WeatherDisplay:10.37,2013-09-25 13:13:00,
2013-09-25 08:18:00,58.1,58.1,29.87,NNE,13,0.0,0.0,100,0.00,CLR,SKC,0.00,WeatherDisplay:10.37,2013-09-25 13:18:00,
2013-09-25 08:23:00,58.2,58.2,29.87,NNE,13,0.0,2.0,100,0.00,CLR,SKC,0.00,WeatherDisplay:10.37,2013-09-25 13:23:00,
2013-09-25 08:28:00,58.4,58.4,29.87,NNE,13,0.0,2.0,100,0.00,CLR,SKC,0.00,WeatherDisplay:10.37,2013-09-25 13:28:00,
2013-09-25 08:33:00,58.5,58.5,29.87,NNE,14,0.0,1.0,100,0.00,CLR,SKC,0.00,WeatherDisplay:10.37,2013-09-25 13:33:00,
2013-09-25 08:38:00,58.7,58.7,29.88,NNE,15,0.0,0.0,100,0.00,CLR,SKC,0.00,WeatherDisplay:10.37,2013-09-25 13:38:00,
2013-09-25 08:43:00,58.9,58.9,29.88,NNE,15,0.0,3.0,100,0.00,CLR,SKC,0.00,WeatherDisplay:10.37,2013-09-25 13:43:00,
2013-09-25 08:48:00,58.8,58.8,29.88,NNE,13,2.0,6.0,100,0.00,CLR,SKC,0.00,WeatherDisplay:10.37,2013-09-25 13:48:00,
2013-09-25 08:53:00,58.7,58.7,29.88,NNE,14,0.0,5.0,100,0.00,CLR,SKC,0.00,WeatherDisplay:10.37,2013-09-25 13:53:00,
2013-09-25 08:58:00,58.9,58.9,29.88,NNE,16,0.0,2.0,100,0.00,CLR,SKC,0.00,WeatherDisplay:10.37,2013-09-25 13:58:00,
2013-09-25 09:03:00,59.5,59.5,29.88,NNE,19,0.0,0.0,100,0.00,CLR,SKC,0.00,WeatherDisplay:10.37,2013-09-25 14:03:00,
2013-09-25 09:08:00,59.7,59.7,29.88,NNE,19,0.0,0.0,100,0.00,CLR,SKC,0.00,WeatherDisplay:10.37,2013-09-25 14:08:00,
2013-09-25 09:13:00,59.8,59.8,29.88,NNE,19,1.0,3.0,100,0.00,CLR,SKC,0.00,WeatherDisplay:10.37,2013-09-25 14:13:00,
2013-09-25 09:18:00,59.8,59.8,29.88,NNE,26,0.0,3.0,100,0.00,CLR,SKC,0.00,WeatherDisplay:10.37,2013-09-25 14:18:00,
2013-09-25 09:23:00,60.0,60.0,29.88,NNE,31,0.0,2.0,100,0.00,CLR,SKC,0.00,WeatherDisplay:10.37,2013-09-25 14:23:00,
2013-09-25 09:28:00,60.4,60.4,29.88,North,2,1.0,2.0,100,0.00,CLR,SKC,0.00,WeatherDisplay:10.37,2013-09-25 14:28:00,
2013-09-25 09:33:00,60.9,60.9,29.88,NW,325,0.0,0.0,100,0.00,CLR,SKC,0.00,WeatherDisplay:10.37,2013-09-25 14:33:00,
2013-09-25 09:38:00,61.5,61.5,29.88,NNW,342,0.0,2.0,100,0.00,CLR,SKC,0.00,WeatherDisplay:10.37,2013-09-25 14:38:00,
2013-09-25 09:43:00,61.9,61.6,29.88,North,9,2.0,3.0,99,0.00,CLR,SKC,0.00,WeatherDisplay:10.37,2013-09-25 14:43:00,
2013-09-25 09:48:00,62.4,61.6,29.88,North,3,1.0,2.0,97,0.00,CLR,SKC,0.00,WeatherDisplay:10.37,2013-09-25 14:48:00,
2013-09-25 09:53:00,63.0,61.9,29.88,North,5,1.0,3.0,96,0.00,CLR,SKC,0.00,WeatherDisplay:10.37,2013-09-25 14:53:00,
2013-09-25 09:58:00,63.4,61.3,29.88,NE,36,3.0,5.0,93,0.00,CLR,SKC,0.00,WeatherDisplay:10.37,2013-09-25 14:58:00,
2013-09-25 10:03:00,63.6,61.5,29.88,NNE,30,0.0,5.0,93,0.00,CLR,SKC,0.00,WeatherDisplay:10.37,2013-09-25 15:03:00,
2013-09-25 10:08:00,64.0,61.7,29.88,NNE,24,0.0,5.0,92,0.00,CLR,SKC,0.00,WeatherDisplay:10.37,2013-09-25 15:08:00,
2013-09-25 10:18:00,65.9,62.9,29.88,ENE,72,0.0,2.0,90,0.00,CLR,SKC,0.00,WeatherDisplay:10.37,2013-09-25 15:18:00,
2013-09-25 10:23:00,66.5,62.5,29.88,NNE,27,1.0,5.0,87,0.00,CLR,SKC,0.00,WeatherDisplay:10.37,2013-09-25 15:23:00,
2013-09-25 10:28:00,66.7,62.3,29.88,NNE,13,3.0,5.0,86,0.00,CLR,SKC,0.00,WeatherDisplay:10.37,2013-09-25 15:28:00,
2013-09-25 10:33:00,67.1,62.7,29.88,NNE,26,1.0,3.0,86,0.00,CLR,SKC,0.00,WeatherDisplay:10.37,2013-09-25 15:33:00,
2013-09-25 10:38:00,67.9,63.2,29.88,ESE,123,0.0,1.0,85,0.00,CLR,SKC,0.00,WeatherDisplay:10.37,2013-09-25 15:38:00,
2013-09-25 10:43:00,68.7,63.7,29.88,SSE,157,1.0,3.0,84,0.00,CLR,SKC,0.00,WeatherDisplay:10.37,2013-09-25 15:43:00,
2013-09-25 10:48:00,69.6,63.9,29.88,South,173,0.0,3.0,82,0.00,CLR,SKC,0.00,WeatherDisplay:10.37,2013-09-25 15:48:00,
2013-09-25 10:53:00,70.1,63.7,29.88,South,172,0.0,2.0,80,0.00,CLR,SKC,0.00,WeatherDisplay:10.37,2013-09-25 15:53:00,
2013-09-25 10:58:00,70.4,63.9,29.88,SSW,198,1.0,3.0,80,0.00,CLR,SKC,0.00,WeatherDisplay:10.37,2013-09-25 15:58:00,
2013-09-25 11:03:00,71.0,64.1,29.88,South,190,0.0,2.0,79,0.00,CLR,SKC,0.00,WeatherDisplay:10.37,2013-09-25 16:03:00,
2013-09-25 11:08:00,71.5,63.9,29.88,SSE,154,0.0,3.0,77,0.00,CLR,SKC,0.00,WeatherDisplay:10.37,2013-09-25 16:08:00,
2013-09-25 11:13:00,71.4,63.8,29.88,NE,40,1.0,3.0,77,0.00,CLR,SKC,0.00,WeatherDisplay:10.37,2013-09-25 16:13:00,
2013-09-25 11:18:00,71.6,64.3,29.88,North,354,1.0,2.0,78,0.00,CLR,SKC,0.00,WeatherDisplay:10.37,2013-09-25 16:18:00,
2013-09-25 11:23:00,72.3,64.3,29.88,SSW,212,0.0,2.0,76,0.00,CLR,SKC,0.00,WeatherDisplay:10.37,2013-09-25 16:23:00,
2013-09-25 11:28:00,72.3,64.3,29.88,NNE,28,1.0,3.0,76,0.00,CLR,SKC,0.00,WeatherDisplay:10.37,2013-09-25 16:28:00,
2013-09-25 11:33:00,72.2,64.3,29.88,SSE,161,1.0,5.0,76,0.00,CLR,SKC,0.00,WeatherDisplay:10.37,2013-09-25 16:33:00,
2013-09-25 11:38:00,73.0,64.6,29.88,SSW,212,0.0,2.0,75,0.00,CLR,SKC,0.00,WeatherDisplay:10.37,2013-09-25 16:38:00,
2013-09-25 11:43:00,73.5,64.7,29.88,NNE,25,0.0,2.0,74,0.00,CLR,SKC,0.00,WeatherDisplay:10.37,2013-09-25 16:43:00,
2013-09-25 11:48:00,74.5,65.3,29.88,South,178,0.0,3.0,73,0.00,CLR,SKC,0.00,WeatherDisplay:10.37,2013-09-25 16:48:00,
2013-09-25 11:53:00,74.7,65.1,29.88,North,353,2.0,5.0,72,0.00,CLR,SKC,0.00,WeatherDisplay:10.37,2013-09-25 16:53:00,
2013-09-25 11:58:00,74.1,64.5,29.88,NNE,29,0.0,3.0,72,0.00,CLR,SKC,0.00,WeatherDisplay:10.37,2013-09-25 16:58:00,
2013-09-25 12:03:00,74.5,65.3,29.87,NE,40,0.0,2.0,73,0.00,CLR,SKC,0.00,WeatherDisplay:10.37,2013-09-25 17:03:00,
2013-09-25 12:08:00,74.4,64.8,29.87,North,11,1.0,5.0,72,0.00,CLR,SKC,0.00,WeatherDisplay:10.37,2013-09-25 17:08:00,
2013-09-25 12:13:00,74.6,64.5,29.87,North,5,0.0,2.0,71,0.00,CLR,SKC,0.00,WeatherDisplay:10.37,2013-09-25 17:13:00,
2013-09-25 12:18:00,75.6,64.7,29.87,North,8,1.0,3.0,69,0.00,CLR,SKC,0.00,WeatherDisplay:10.37,2013-09-25 17:18:00,
2013-09-25 12:23:00,75.5,64.2,29.87,ENE,68,0.0,5.0,68,0.00,CLR,SKC,0.00,WeatherDisplay:10.37,2013-09-25 17:23:00,
2013-09-25 12:28:00,75.0,64.1,29.86,NE,42,3.0,8.0,69,0.00,CLR,SKC,0.00,WeatherDisplay:10.37,2013-09-25 17:28:00,
2013-09-25 12:33:00,74.1,63.7,29.86,North,352,0.0,7.0,70,0.00,CLR,SKC,0.00,WeatherDisplay:10.37,2013-09-25 17:33:00,
2013-09-25 12:38:00,73.8,63.0,29.86,WNW,303,2.0,7.0,69,0.00,CLR,SKC,0.00,WeatherDisplay:10.37,2013-09-25 17:38:00,
2013-09-25 12:43:00,74.2,63.4,29.86,NNW,327,5.0,7.0,69,0.00,CLR,SKC,0.00,WeatherDisplay:10.37,2013-09-25 17:43:00,
2013-09-25 12:48:00,74.7,63.9,29.86,NE,52,1.0,5.0,69,0.00,CLR,SKC,0.00,WeatherDisplay:10.37,2013-09-25 17:48:00,
2013-09-25 12:53:00,75.2,63.5,29.85,SSW,202,8.0,10.0,67,0.00,CLR,SKC,0.00,WeatherDisplay:10.37,2013-09-25 17:53:00,
2013-09-25 12:58:00,75.6,63.8,29.85,South,186,2.0,9.0,67,0.00,CLR,SKC,0.00,WeatherDisplay:10.37,2013-09-25 17:58:00,
2013-09-25 13:03:00,75.9,64.1,29.85,SSE,164,5.0,6.0,67,0.00,CLR,SKC,0.00,WeatherDisplay:10.37,2013-09-25 18:03:00,
2013-09-25 13:08:00,76.5,64.3,29.85,SE,133,0.0,7.0,66,0.00,CLR,SKC,0.00,WeatherDisplay:10.37,2013-09-25 18:08:00,
2013-09-25 13:13:00,76.5,63.8,29.85,NNE,30,5.0,12.0,65,0.00,CLR,SKC,0.00,WeatherDisplay:10.37,2013-09-25 18:13:00,
2013-09-25 13:18:00,76.8,64.1,29.85,NE,45,1.0,6.0,65,0.00,CLR,SKC,0.00,WeatherDisplay:10.37,2013-09-25 18:18:00,
2013-09-25 13:23:00,76.5,63.4,29.84,North,9,1.0,5.0,64,0.00,CLR,SKC,0.00,WeatherDisplay:10.37,2013-09-25 18:23:00,
2013-09-25 13:28:00,76.4,63.8,29.84,NNE,22,3.0,8.0,65,0.00,CLR,SKC,0.00,WeatherDisplay:10.37,2013-09-25 18:28:00,
2013-09-25 13:33:00,76.4,64.2,29.84,NE,39,2.0,7.0,66,0.00,CLR,SKC,0.00,WeatherDisplay:10.37,2013-09-25 18:33:00,
2013-09-25 13:38:00,76.7,63.6,29.84,SSE,157,6.0,8.0,64,0.00,CLR,SKC,0.00,WeatherDisplay:10.37,2013-09-25 18:38:00,
2013-09-25 13:43:00,77.1,64.4,29.83,SSE,164,3.0,8.0,65,0.00,CLR,SKC,0.00,WeatherDisplay:10.37,2013-09-25 18:43:00,
2013-09-25 13:48:00,77.9,64.7,29.83,SSE,151,1.0,3.0,64,0.00,CLR,SKC,0.00,WeatherDisplay:10.37,2013-09-25 18:48:00,
2013-09-25 13:53:00,78.6,64.5,29.83,East,99,3.0,7.0,62,0.00,CLR,SKC,0.00,WeatherDisplay:10.37,2013-09-25 18:53:00,
2013-09-25 13:58:00,78.1,64.0,29.83,East,86,2.0,7.0,62,0.00,CLR,SKC,0.00,WeatherDisplay:10.37,2013-09-25 18:58:00,
2013-09-25 14:03:00,78.0,64.4,29.82,SE,132,2.0,7.0,63,0.00,CLR,SKC,0.00,WeatherDisplay:10.37,2013-09-25 19:03:00,
2013-09-25 14:08:00,78.5,63.4,29.82,SSE,168,3.0,10.0,60,0.00,CLR,SKC,0.00,WeatherDisplay:10.37,2013-09-25 19:08:00,
2013-09-25 14:13:00,78.6,64.1,29.82,South,190,1.0,8.0,61,0.00,CLR,SKC,0.00,WeatherDisplay:10.37,2013-09-25 19:13:00,
2013-09-25 14:18:00,78.8,64.2,29.82,SSW,211,1.0,6.0,61,0.00,CLR,SKC,0.00,WeatherDisplay:10.37,2013-09-25 19:18:00,
2013-09-25 14:23:00,78.8,63.8,29.82,ESE,104,2.0,5.0,60,0.00,CLR,SKC,0.00,WeatherDisplay:10.37,2013-09-25 19:23:00,
2013-09-25 14:28:00,79.0,64.8,29.81,East,86,0.0,3.0,62,0.00,CLR,SKC,0.00,WeatherDisplay:10.37,2013-09-25 19:28:00,
2013-09-25 14:33:00,79.2,64.1,29.82,SSE,147,2.0,7.0,60,0.00,CLR,SKC,0.00,WeatherDisplay:10.37,2013-09-25 19:33:00,
2013-09-25 14:38:00,79.3,63.7,29.81,South,178,2.0,7.0,59,0.00,CLR,SKC,0.00,WeatherDisplay:10.37,2013-09-25 19:38:00,
2013-09-25 14:43:00,79.3,63.8,29.81,SSE,164,2.0,7.0,59,0.00,CLR,SKC,0.00,WeatherDisplay:10.37,2013-09-25 19:43:00,
2013-09-25 14:48:00,79.5,64.4,29.81,SE,139,5.0,7.0,60,0.00,CLR,SKC,0.00,WeatherDisplay:10.37,2013-09-25 19:48:00,
2013-09-25 14:53:00,79.5,64.4,29.81,SSE,153,2.0,5.0,60,0.00,CLR,SKC,0.00,WeatherDisplay:10.37,2013-09-25 19:53:00,
2013-09-25 14:58:00,79.5,64.4,29.81,South,186,0.0,5.0,60,0.00,CLR,SKC,0.00,WeatherDisplay:10.37,2013-09-25 19:58:00,
2013-09-25 15:03:00,79.9,64.8,29.81,SSW,209,0.0,2.0,60,0.00,CLR,SKC,0.00,WeatherDisplay:10.37,2013-09-25 20:03:00,
2013-09-25 15:08:00,80.2,65.1,29.81,SSE,163,0.0,5.0,60,0.00,CLR,SKC,0.00,WeatherDisplay:10.37,2013-09-25 20:08:00,
2013-09-25 15:13:00,80.7,64.6,29.81,SE,136,0.0,3.0,58,0.00,CLR,SKC,0.00,WeatherDisplay:10.37,2013-09-25 20:13:00,
2013-09-25 15:18:00,80.9,64.8,29.81,NNW,336,1.0,7.0,58,0.00,CLR,SKC,0.00,WeatherDisplay:10.37,2013-09-25 20:18:00,
2013-09-25 15:23:00,80.5,63.4,29.81,SSE,167,3.0,8.0,56,0.00,CLR,SKC,0.00,WeatherDisplay:10.37,2013-09-25 20:23:00,
2013-09-25 15:28:00,80.6,64.4,29.81,SSE,163,0.0,8.0,58,0.00,CLR,SKC,0.00,WeatherDisplay:10.37,2013-09-25 20:28:00,
2013-09-25 15:33:00,80.7,64.1,29.80,South,182,3.0,7.0,57,0.00,CLR,SKC,0.00,WeatherDisplay:10.37,2013-09-25 20:33:00,
2013-09-25 15:38:00,80.7,65.0,29.80,SSE,161,0.0,5.0,59,0.00,CLR,SKC,0.00,WeatherDisplay:10.37,2013-09-25 20:38:00,
2013-09-25 15:43:00,80.7,64.5,29.80,ESE,107,1.0,5.0,58,0.00,CLR,SKC,0.00,WeatherDisplay:10.37,2013-09-25 20:43:00,
2013-09-25 15:48:00,80.8,64.7,29.80,ESE,110,3.0,10.0,58,0.00,CLR,SKC,0.00,WeatherDisplay:10.37,2013-09-25 20:48:00,
2013-09-25 15:53:00,80.8,64.2,29.80,SE,146,3.0,9.0,57,0.00,CLR,SKC,0.00,WeatherDisplay:10.37,2013-09-25 20:53:00,
2013-09-25 15:58:00,80.5,64.4,29.80,SSE,156,5.0,10.0,58,0.00,CLR,SKC,0.00,WeatherDisplay:10.37,2013-09-25 20:58:00,
2013-09-25 16:03:00,80.1,64.5,29.80,SSE,164,6.0,10.0,59,0.00,CLR,SKC,0.00,WeatherDisplay:10.37,2013-09-25 21:03:00,
2013-09-25 16:08:00,79.9,64.3,29.80,SSE,157,1.0,5.0,59,0.00,CLR,SKC,0.00,WeatherDisplay:10.37,2013-09-25 21:08:00,
2013-09-25 16:13:00,79.9,65.3,29.80,ESE,118,2.0,15.0,61,0.00,CLR,SKC,0.00,WeatherDisplay:10.37,2013-09-25 21:13:00,
2013-09-25 16:18:00,80.0,65.4,29.80,SE,129,2.0,7.0,61,0.00,CLR,SKC,0.00,WeatherDisplay:10.37,2013-09-25 21:18:00,
2013-09-25 16:23:00,80.4,65.2,29.80,SSW,192,2.0,12.0,60,0.00,CLR,SKC,0.00,WeatherDisplay:10.37,2013-09-25 21:23:00,
2013-09-25 16:28:00,80.1,65.0,29.80,SSE,154,5.0,12.0,60,0.00,CLR,SKC,0.00,WeatherDisplay:10.37,2013-09-25 21:28:00,
2013-09-25 16:33:00,80.0,64.8,29.80,SSE,160,6.0,12.0,60,0.00,CLR,SKC,0.00,WeatherDisplay:10.37,2013-09-25 21:33:00,
2013-09-25 16:38:00,79.8,65.2,29.80,South,178,2.0,8.0,61,0.00,CLR,SKC,0.00,WeatherDisplay:10.37,2013-09-25 21:38:00,
2013-09-25 16:43:00,79.5,64.8,29.80,SSE,166,5.0,11.0,61,0.00,CLR,SKC,0.00,WeatherDisplay:10.37,2013-09-25 21:43:00,
2013-09-25 16:48:00,79.3,65.2,29.80,East,101,1.0,7.0,62,0.00,CLR,SKC,0.00,WeatherDisplay:10.37,2013-09-25 21:48:00,
2013-09-25 16:53:00,79.5,65.3,29.80,East,88,0.0,7.0,62,0.00,CLR,SKC,0.00,WeatherDisplay:10.37,2013-09-25 21:53:00,
2013-09-25 16:58:00,79.6,64.9,29.80,SSE,164,3.0,7.0,61,0.00,CLR,SKC,0.00,WeatherDisplay:10.37,2013-09-25 21:58:00,
2013-09-25 17:03:00,79.1,64.9,29.80,South,180,3.0,7.0,62,0.00,CLR,SKC,0.00,WeatherDisplay:10.37,2013-09-25 22:03:00,
2013-09-25 17:08:00,78.4,65.2,29.80,South,183,2.0,10.0,64,0.00,CLR,SKC,0.00,WeatherDisplay:10.37,2013-09-25 22:08:00,
2013-09-25 17:13:00,77.6,64.9,29.80,SSW,192,3.0,9.0,65,0.00,CLR,SKC,0.00,WeatherDisplay:10.37,2013-09-25 22:13:00,
2013-09-25 17:18:00,77.1,64.9,29.80,SSE,168,2.0,7.0,66,0.00,CLR,SKC,0.00,WeatherDisplay:10.37,2013-09-25 22:18:00,
2013-09-25 17:23:00,76.9,64.7,29.80,SSE,155,2.0,8.0,66,0.00,CLR,SKC,0.00,WeatherDisplay:10.37,2013-09-25 22:23:00,
2013-09-25 17:28:00,76.5,64.3,29.80,SE,146,5.0,7.0,66,0.00,CLR,SKC,0.00,WeatherDisplay:10.37,2013-09-25 22:28:00,
2013-09-25 17:33:00,76.1,64.4,29.80,SSE,166,3.0,8.0,67,0.00,CLR,SKC,0.00,WeatherDisplay:10.37,2013-09-25 22:33:00,
2013-09-25 17:38:00,75.8,64.1,29.80,SSE,163,3.0,8.0,67,0.00,CLR,SKC,0.00,WeatherDisplay:10.37,2013-09-25 22:38:00,
2013-09-25 17:43:00,75.7,64.0,29.80,South,170,2.0,7.0,67,0.00,CLR,SKC,0.00,WeatherDisplay:10.37,2013-09-25 22:43:00,
2013-09-25 17:48:00,75.6,64.3,29.80,SSE,167,2.0,10.0,68,0.00,CLR,SKC,0.00,WeatherDisplay:10.37,2013-09-25 22:48:00,
2013-09-25 17:53:00,75.2,63.9,29.80,South,179,5.0,12.0,68,0.00,CLR,SKC,0.00,WeatherDisplay:10.37,2013-09-25 22:53:00,
2013-09-25 17:58:00,74.9,64.0,29.80,SSE,166,3.0,12.0,69,0.00,CLR,SKC,0.00,WeatherDisplay:10.37,2013-09-25 22:58:00,
2013-09-25 18:03:00,74.6,64.2,29.80,SE,142,1.0,8.0,70,0.00,CLR,SKC,0.00,WeatherDisplay:10.37,2013-09-25 23:03:00,
2013-09-25 18:08:00,74.4,64.0,29.80,SE,143,3.0,10.0,70,0.00,CLR,SKC,0.00,WeatherDisplay:10.37,2013-09-25 23:08:00,
2013-09-25 18:13:00,74.1,63.7,29.80,South,169,1.0,8.0,70,0.00,CLR,SKC,0.00,WeatherDisplay:10.37,2013-09-25 23:13:00,
2013-09-25 18:18:00,73.9,63.9,29.80,SSE,155,1.0,6.0,71,0.00,CLR,SKC,0.00,WeatherDisplay:10.37,2013-09-25 23:18:00,
2013-09-25 18:33:00,73.3,63.7,29.80,SSE,154,3.0,8.0,72,0.00,CLR,SKC,0.00,WeatherDisplay:10.37,2013-09-25 23:33:00,
2013-09-25 18:38:00,73.1,63.6,29.80,SE,138,2.0,12.0,72,0.00,CLR,SKC,0.00,WeatherDisplay:10.37,2013-09-25 23:38:00,
2013-09-25 18:43:00,72.9,63.8,29.80,SSE,148,1.0,7.0,73,0.00,CLR,SKC,0.00,WeatherDisplay:10.37,2013-09-25 23:43:00,
2013-09-25 18:48:00,72.7,63.6,29.80,South,179,1.0,7.0,73,0.00,CLR,SKC,0.00,WeatherDisplay:10.37,2013-09-25 23:48:00,
2013-09-25 18:53:00,72.5,63.8,29.80,SSE,153,2.0,7.0,74,0.00,CLR,SKC,0.00,WeatherDisplay:10.37,2013-09-25 23:53:00,
2013-09-25 18:58:00,72.3,64.0,29.80,SE,135,1.0,5.0,75,0.00,CLR,SKC,0.00,WeatherDisplay:10.37,2013-09-25 23:58:00,
2013-09-25 19:03:00,72.1,63.8,29.80,SE,144,1.0,7.0,75,0.00,CLR,SKC,0.00,WeatherDisplay:10.37,2013-09-26 00:03:00,
2013-09-25 19:08:00,71.9,63.9,29.80,SSE,152,2.0,7.0,76,0.00,CLR,SKC,0.00,WeatherDisplay:10.37,2013-09-26 00:08:00,
2013-09-25 19:13:00,71.6,63.7,29.80,SSE,160,1.0,5.0,76,0.00,CLR,SKC,0.00,WeatherDisplay:10.37,2013-09-26 00:13:00,
2013-09-25 19:18:00,71.4,63.4,29.80,SSE,147,1.0,3.0,76,0.00,CLR,SKC,0.00,WeatherDisplay:10.37,2013-09-26 00:18:00,
2013-09-25 19:23:00,71.1,63.1,29.80,SE,144,2.0,7.0,76,0.00,CLR,SKC,0.00,WeatherDisplay:10.37,2013-09-26 00:23:00,
2013-09-25 19:28:00,70.9,62.9,29.80,SSE,148,1.0,5.0,76,0.00,CLR,SKC,0.00,WeatherDisplay:10.37,2013-09-26 00:28:00,
2013-09-25 19:33:00,70.6,63.1,29.80,SE,137,2.0,8.0,77,0.00,CLR,SKC,0.00,WeatherDisplay:10.37,2013-09-26 00:33:00,
2013-09-25 19:38:00,70.4,62.9,29.80,SE,132,0.0,3.0,77,0.00,CLR,SKC,0.00,WeatherDisplay:10.37,2013-09-26 00:38:00,
2013-09-25 19:43:00,70.2,63.0,29.80,SE,138,1.0,5.0,78,0.00,CLR,SKC,0.00,WeatherDisplay:10.37,2013-09-26 00:43:00,
2013-09-25 19:48:00,70.0,62.8,29.80,SE,132,0.0,10.0,78,0.00,CLR,SKC,0.00,WeatherDisplay:10.37,2013-09-26 00:48:00,
2013-09-25 19:53:00,69.9,62.7,29.80,SE,126,0.0,2.0,78,0.00,CLR,SKC,0.00,WeatherDisplay:10.37,2013-09-26 00:53:00,
2013-09-25 19:58:00,69.7,62.9,29.80,ESE,123,1.0,7.0,79,0.00,CLR,SKC,0.00,WeatherDisplay:10.37,2013-09-26 00:58:00,
2013-09-25 20:03:00,69.6,62.8,29.80,ESE,122,0.0,7.0,79,0.00,CLR,SKC,0.00,WeatherDisplay:10.37,2013-09-26 01:03:00,
2013-09-25 20:08:00,69.5,62.7,29.80,SE,125,0.0,5.0,79,0.00,CLR,SKC,0.00,WeatherDisplay:10.37,2013-09-26 01:08:00,
2013-09-25 20:13:00,69.3,62.9,29.80,SE,126,2.0,5.0,80,0.00,CLR,SKC,0.00,WeatherDisplay:10.37,2013-09-26 01:13:00,
2013-09-25 20:18:00,69.1,62.7,29.80,SE,143,0.0,5.0,80,0.00,CLR,SKC,0.00,WeatherDisplay:10.37,2013-09-26 01:18:00,
2013-09-25 20:23:00,69.0,62.9,29.80,SSE,155,1.0,5.0,81,0.00,CLR,SKC,0.00,WeatherDisplay:10.37,2013-09-26 01:23:00,
2013-09-25 20:28:00,68.9,62.8,29.80,SSE,152,0.0,3.0,81,0.00,CLR,SKC,0.00,WeatherDisplay:10.37,2013-09-26 01:28:00,
2013-09-25 20:33:00,68.6,62.6,29.81,SSE,147,0.0,2.0,81,0.00,CLR,SKC,0.00,WeatherDisplay:10.37,2013-09-26 01:33:00,
2013-09-25 20:38:00,68.4,62.7,29.81,SE,142,1.0,5.0,82,0.00,CLR,SKC,0.00,WeatherDisplay:10.37,2013-09-26 01:38:00,
2013-09-25 20:43:00,68.2,62.5,29.81,SE,142,0.0,2.0,82,0.00,CLR,SKC,0.00,WeatherDisplay:10.37,2013-09-26 01:43:00,
2013-09-25 20:48:00,68.0,62.3,29.80,SE,144,1.0,3.0,82,0.00,CLR,SKC,0.00,WeatherDisplay:10.37,2013-09-26 01:48:00,
2013-09-25 20:53:00,67.9,62.5,29.80,SE,139,0.0,2.0,83,0.00,CLR,SKC,0.00,WeatherDisplay:10.37,2013-09-26 01:53:00,
2013-09-25 20:58:00,67.8,62.4,29.81,SE,139,1.0,3.0,83,0.00,CLR,SKC,0.00,WeatherDisplay:10.37,2013-09-26 01:58:00,
2013-09-25 21:03:00,67.7,62.3,29.80,SE,140,1.0,6.0,83,0.00,CLR,SKC,0.00,WeatherDisplay:10.37,2013-09-26 02:03:00,
2013-09-25 21:08:00,67.5,62.2,29.80,SSE,158,0.0,3.0,83,0.00,CLR,SKC,0.00,WeatherDisplay:10.37,2013-09-26 02:08:00,
2013-09-25 21:13:00,67.4,62.0,29.80,SE,144,2.0,8.0,83,0.00,CLR,SKC,0.00,WeatherDisplay:10.37,2013-09-26 02:13:00,
2013-09-25 21:18:00,67.2,62.2,29.80,SSE,148,2.0,5.0,84,0.00,CLR,SKC,0.00,WeatherDisplay:10.37,2013-09-26 02:18:00,
2013-09-25 21:23:00,67.1,62.1,29.80,SSE,153,1.0,5.0,84,0.00,CLR,SKC,0.00,WeatherDisplay:10.37,2013-09-26 02:23:00,
2013-09-25 21:28:00,66.9,61.9,29.80,SE,142,5.0,10.0,84,0.00,CLR,SKC,0.00,WeatherDisplay:10.37,2013-09-26 02:28:00,
2013-09-25 21:33:00,66.8,61.8,29.80,SE,128,2.0,6.0,84,0.00,CLR,SKC,0.00,WeatherDisplay:10.37,2013-09-26 02:33:00,
2013-09-25 21:38:00,66.7,61.7,29.80,SSE,152,2.0,7.0,84,0.00,CLR,SKC,0.00,WeatherDisplay:10.37,2013-09-26 02:38:00,
2013-09-25 21:43:00,66.6,61.6,29.80,SSE,164,1.0,5.0,84,0.00,CLR,SKC,0.00,WeatherDisplay:10.37,2013-09-26 02:43:00,
2013-09-25 21:48:00,66.5,61.5,29.80,SSE,160,3.0,8.0,84,0.00,CLR,SKC,0.00,WeatherDisplay:10.37,2013-09-26 02:48:00,
2013-09-25 21:58:00,66.3,61.6,29.80,SSE,166,2.0,10.0,85,0.00,CLR,SKC,0.00,WeatherDisplay:10.37,2013-09-26 02:58:00,
2013-09-25 22:03:00,66.1,61.5,29.80,SSE,165,1.0,5.0,85,0.00,CLR,SKC,0.00,WeatherDisplay:10.37,2013-09-26 03:03:00,
2013-09-25 22:08:00,65.9,61.3,29.80,SSE,157,0.0,3.0,85,0.00,CLR,SKC,0.00,WeatherDisplay:10.37,2013-09-26 03:08:00,
2013-09-25 22:13:00,65.7,61.4,29.81,SE,145,0.0,3.0,86,0.00,CLR,SKC,0.00,WeatherDisplay:10.37,2013-09-26 03:13:00,
2013-09-25 22:18:00,65.5,61.2,29.81,SSE,147,1.0,5.0,86,0.00,CLR,SKC,0.00,WeatherDisplay:10.37,2013-09-26 03:18:00,
2013-09-25 22:28:00,65.2,61.3,29.81,SSE,162,0.0,3.0,87,0.00,CLR,SKC,0.00,WeatherDisplay:10.37,2013-09-26 03:28:00,
2013-09-25 22:33:00,65.1,61.1,29.81,SE,130,1.0,5.0,87,0.00,CLR,SKC,0.00,WeatherDisplay:10.37,2013-09-26 03:33:00,
2013-09-25 22:38:00,64.9,61.3,29.81,SE,126,0.0,2.0,88,0.00,CLR,SKC,0.00,WeatherDisplay:10.37,2013-09-26 03:38:00,
2013-09-25 22:48:00,64.8,61.2,29.81,SSE,163,0.0,3.0,88,0.00,CLR,SKC,0.00,WeatherDisplay:10.37,2013-09-26 03:48:00,
2013-09-25 22:53:00,64.7,61.1,29.81,SE,138,1.0,5.0,88,0.00,CLR,SKC,0.00,WeatherDisplay:10.37,2013-09-26 03:53:00,
2013-09-25 22:58:00,64.7,61.4,29.81,South,179,1.0,7.0,89,0.00,CLR,SKC,0.00,WeatherDisplay:10.37,2013-09-26 03:58:00,
2013-09-25 23:03:00,64.7,61.4,29.81,South,181,1.0,7.0,89,0.00,CLR,SKC,0.00,WeatherDisplay:10.37,2013-09-26 04:03:00,
2013-09-25 23:08:00,64.7,61.4,29.81,SE,139,0.0,7.0,89,0.00,CLR,SKC,0.00,WeatherDisplay:10.37,2013-09-26 04:08:00,
2013-09-25 23:13:00,64.7,61.0,29.82,SE,141,0.0,2.0,88,0.00,CLR,SKC,0.00,WeatherDisplay:10.37,2013-09-26 04:13:00,
2013-09-25 23:18:00,64.6,61.0,29.82,South,177,1.0,5.0,88,0.00,CLR,SKC,0.00,WeatherDisplay:10.37,2013-09-26 04:18:00,
2013-09-25 23:23:00,64.6,61.3,29.82,SSE,162,1.0,8.0,89,0.00,CLR,SKC,0.00,WeatherDisplay:10.37,2013-09-26 04:23:00,
2013-09-25 23:28:00,64.6,61.0,29.82,SSE,167,1.0,3.0,88,0.00,CLR,SKC,0.00,WeatherDisplay:10.37,2013-09-26 04:28:00,
2013-09-25 23:33:00,64.6,61.3,29.82,SE,141,1.0,6.0,89,0.00,CLR,SKC,0.00,WeatherDisplay:10.37,2013-09-26 04:33:00,
2013-09-25 23:38:00,64.7,61.1,29.82,SSE,163,0.0,7.0,88,0.00,CLR,SKC,0.00,WeatherDisplay:10.37,2013-09-26 04:38:00,
2013-09-25 23:43:00,64.7,61.1,29.82,SSE,163,0.0,5.0,88,0.00,CLR,SKC,0.00,WeatherDisplay:10.37,2013-09-26 04:43:00,
2013-09-25 23:48:00,64.7,61.1,29.82,SSE,154,2.0,8.0,88,0.00,CLR,SKC,0.00,WeatherDisplay:10.37,2013-09-26 04:48:00,
2013-09-25 23:53:00,64.7,61.1,29.81,SSE,164,1.0,7.0,88,0.00,CLR,SKC,0.00,WeatherDisplay:10.37,2013-09-26 04:53:00,
2013-09-25 23:58:00,64.6,61.0,29.81,SSE,155,0.0,1.0,88,0.00,CLR,SKC,0.00,WeatherDisplay:10.37,2013-09-26 04:58:00,